TimeCDT,TemperatureF,Dew PointF,Humidity,Sea Level PressureIn,VisibilityMPH,Wind Direction,Wind SpeedMPH,Gust SpeedMPH,PrecipitationIn,Events,Conditions,WindDirDegrees,DateUTC
12:53 AM,62.1,55.9,80,30.01,10.0,NE,3.5,-,N/A,,Clear,40,2012-10-16 05:53:00
1:53 AM,62.1,57.0,84,30.00,10.0,ENE,4.6,-,N/A,,Clear,60,2012-10-16 06:53:00
2:53 AM,62.1,55.9,80,29.99,10.0,ENE,4.6,-,N/A,,Clear,70,2012-10-16 07:53:00
3:53 AM,62.1,55.0,78,29.96,10.0,ENE,3.5,-,N/A,,Clear,60,2012-10-16 08:53:00
4:53 AM,57.9,55.0,90,29.97,10.0,NE,3.5,-,N/A,,Clear,50,2012-10-16 09:53:00
5:53 AM,59.0,55.0,87,29.96,10.0,Calm,Calm,-,N/A,,Clear,0,2012-10-16 10:53:00
6:53 AM,57.2,53.6,88,29.95,10.0,Calm,Calm,-,N/A,,Clear,0,2012-10-16 11:53:00
7:53 AM,59.0,55.0,87,29.98,10.0,NE,3.5,-,N/A,,Clear,50,2012-10-16 12:53:00
8:53 AM,66.0,57.0,73,29.98,10.0,East,5.8,-,N/A,,Clear,80,2012-10-16 13:53:00
9:53 AM,68.0,60.1,76,29.99,10.0,East,6.9,-,N/A,,Clear,100,2012-10-16 14:53:00
10:53 AM,73.0,62.1,68,29.98,10.0,East,6.9,-,N/A,,Clear,100,2012-10-16 15:53:00
11:53 AM,75.9,63.0,64,29.96,10.0,ESE,9.2,-,N/A,,Clear,120,2012-10-16 16:53:00
12:53 PM,79.0,64.0,60,29.95,10.0,Variable,4.6,-,N/A,,Clear,0,2012-10-16 17:53:00
1:53 PM,80.1,64.0,58,29.91,10.0,SSE,5.8,-,N/A,,Scattered Clouds,160,2012-10-16 18:53:00
2:53 PM,79.0,62.1,56,29.88,10.0,SSW,5.8,-,N/A,,Clear,200,2012-10-16 19:53:00
3:53 PM,78.1,66.9,68,29.87,10.0,South,4.6,-,N/A,,Partly Cloudy,190,2012-10-16 20:53:00
4:53 PM,77.0,68.0,74,29.86,10.0,SSW,3.5,-,N/A,,Clear,200,2012-10-16 21:53:00
5:53 PM,75.9,70.0,82,29.86,10.0,South,3.5,-,N/A,,Partly Cloudy,190,2012-10-16 22:53:00
6:53 PM,73.9,70.0,87,29.86,10.0,Calm,Calm,-,N/A,,Partly Cloudy,0,2012-10-16 23:53:00
7:53 PM,73.0,70.0,90,29.87,10.0,Calm,Calm,-,N/A,,Partly Cloudy,0,2012-10-17 00:53:00
8:53 PM,70.0,66.9,90,29.88,9.0,West,5.8,-,0.00,Rain,Light Rain,260,2012-10-17 01:53:00
9:11 PM,69.8,68.0,94,29.85,5.0,WSW,8.1,-,0.01,Rain,Rain,250,2012-10-17 02:11:00
9:27 PM,68.0,66.2,94,29.85,5.0,WSW,8.1,-,0.04,Rain,Rain,240,2012-10-17 02:27:00
9:53 PM,66.0,63.0,90,29.88,7.0,SW,9.2,-,0.07,Rain,Rain,220,2012-10-17 02:53:00
10:53 PM,66.0,63.0,90,29.83,9.0,SSW,6.9,17.3,0.08,Rain,Light Rain,210,2012-10-17 03:53:00
11:12 PM,66.2,62.6,88,29.86,10.0,North,12.7,23.0,0.01,Rain,Light Rain,350,2012-10-17 04:12:00
11:53 PM,64.9,62.1,90,29.88,10.0,WNW,4.6,-,0.01,,Clear,290,2012-10-17 04:53:00